STARLINK-36085

Last updated on Fri Dec 19 2025 00:02:09 GMT+0000 (Coordinated Universal Time)

1 67035U 25294F 25351.83335648 -.01304970 50754-3 -31989-2 0 9991 2 67035 42.9999 151.3007 0001773 280.3093 128.4504 15.95243000 2123
UTC large
Height (km)
Speed (km/s)
/
Latitude / Longitude
Inclination (degrees)
Orbital Period (minutes)
Azimuth
Elevation
Range (km)
Doppler Factor

Next 0 passes for location: London (51.5072 / 0.1276)

Sorry there are no passes over London.